Other Public Products
Issued by NWS Grand Forks, ND

Home | Current Version | Previous Version | Graphics & Text | Print | Product List | Glossary On
Versions: 1 2 3 4 5 6 7 8 9 10 11 12 13 14 15 16 17 18 19 20 21 22 23 24 25 26 27 28 29 30 31 32 33 34 35 36 37 38 39 40 41 42 43 44 45 46 47 48 49 50
000
FPUS83 KFGF 020810
OPUFGF
PRAIRIE TO PINES WEATHER ROUNDUP
NATIONAL WEATHER SERVICE EASTERN NORTH DAKOTA/GRAND FORKS ND
300 AM CDT THU OCT 02 2014

 **SATELLITE DATA USED TO AUGMENT SKY COVER AT AUTOMATED STATIONS**
 *****  WEATHER ACROSS EASTERN NORTH DAKOTA  *****

CITY           SKY/WX    TMP DP  RH WIND       PRES   REMARKS
GRAND FORKS    CLEAR     50  47  89 W6        29.79R
GRAND FORKS AF CLEAR     49  49  98 W7        29.80R
GRAND CITY NWS   N/A     50 N/A N/A W3          N/A
BUXTON         NOT AVBL
DEVILS LAKE    PTCLDY    50  43  76 W9        29.79S
FARGO          CLEAR     51  47  86 W7        29.82S
WAHPETON ARPT  MOSUNNY   52  46  82 W7        29.84S
$$

 *****  WEATHER ACROSS CENTRAL AND WESTERN NORTH DAKOTA  *****

CITY           SKY/WX    TMP DP  RH WIND       PRES   REMARKS
JAMESTOWN      PTCLDY    49  45  86 W9        29.84R
BISMARCK       PTCLDY    44  42  93 S3        29.90R
MINOT          PTCLDY    48  42  80 SW10      29.82R
MINOT AFB      CLEAR     45  44  99 W8        29.81S
GARRISON         N/A     46  43  89 W9        29.84F
WILLISTON      PTCLDY    42  39  89 SW5       29.85S
DICKINSON      CLEAR     40  37  89 W6        29.89R
HETTINGER      CLEAR     37  35  92 CALM      29.94R
$$

 *****  OTHER OBSERVATIONS NORTHEAST NORTH DAKOTA  *****

CITY           SKY/WX    TMP DP  RH WIND       PRES   REMARKS
WALHALLA       FAIR      50  50 100 W3        29.77S
LANGDON        FAIR      45  43  93 W7        29.78R
CAVALIER       FAIR      50  46  87 W7        29.77S
GRAFTON        FAIR      46  46 100 SW8       29.78R
CANDO          FAIR      43  43 100 W6        29.81R
FORT TOTTEN    NOT AVBL
ROLLA          CLOUDY    43  43 100 SW7       29.80R
RUGBY          FAIR      45  45 100 W6        29.81R
 ***** THE ABOVE OBSERVATIONS ARE NON NWS ARE NOT QUALITY
        CONTROLLED AND MAY MIS-REPORT RAIN FOR SNOW...
$$

 *****  OTHER OBSERVATIONS SOUTHEAST NORTH DAKOTA *****

CITY           SKY/WX    TMP DP  RH WIND       PRES   REMARKS
COOPERSTOWN    NOT AVBL
VALLEY CITY    FAIR      46  46 100 W7        29.83S
OAKES            N/A     46  46 100 SW3       29.86S
GWINNER        PTSUNNY   52  48  87 NW6       29.86S
SHEYENNE NWR     N/A     47  45  94 W3        29.95
BUFFALO        NOT AVBL
WYNDMERE         N/A     52  48  87 W3          N/A
 ***** THE ABOVE OBSERVATIONS ARE NON NWS ARE NOT QUALITY
       CONTROLLED AND MAY MIS-REPORT RAIN FOR SNOW...
$$

  *****  WEATHER ACROSS NORTHERN MINNESOTA  *****

CITY           SKY/WX    TMP DP  RH WIND       PRES   REMARKS
FLAG ISLAND    CLOUDY    54  50  87 SW8       29.71R
WARROAD        CLOUDY    54  50  87 W8        29.75R
ROSEAU         CLOUDY    55  48  76 W9        29.75R
HALLOCK        PTCLDY    50  46  87 SW7       29.76R
THF RVR FALLS  CLOUDY    55  48  76 W7        29.78S
HALSTAD          N/A     51  48  91 W9          N/A
FOSSTON        CLOUDY    52  48  87 SW5       29.81R
BAUDETTE       CLOUDY    53  50  89 SW6       29.75R
WASKISH        CLOUDY    55  52  88 CALM      29.77S
CROOKSTON      MOCLDY    54  50  87 W7        29.80S
$$
  *****  WEATHER ACROSS CENTRAL AND WEST MINNESOTA  *****

CITY           SKY/WX    TMP DP  RH WIND       PRES   REMARKS
BEMIDJI        CLOUDY    52  49  90 SW6       29.80S
PARK RAPIDS    CLOUDY    50  49  96 W5        29.82R
WADENA         CLOUDY    50  48  93 W6        29.82F
DETROIT LAKES  MOCLDY    55  50  82 W3        29.83F
MOORHEAD       NOT AVBL
FERGUS FALLS   PTCLDY    52  48  87 W3        29.83F
ELBOW LAKE     FAIR      49  47  95 CALM      29.83F
MORRIS MN      CLEAR     48  46  93 W3        29.83F
STAPLES        CLEAR     46  45  93 CALM      29.83S FOG
WHEATON        PTCLDY    50  46  87 W5        29.85F
$$
  *****  WEATHER ELSEWHERE ACROSS MINNESOTA  *****

CITY           SKY/WX    TMP DP  RH WIND       PRES   REMARKS
DULUTH         FOG       52  51  97 S5        29.82F VSB 1/4
INTRNTL FALLS  PTCLDY    52  51  97 SW5       29.75R
ELY            CLOUDY    52  50  93 SW8       29.80S
CLOQUET        FOG       52  52 100 CALM      29.82S VSB 1/4
BRAINERD       CLOUDY    52  52 100 SW5       29.84R FOG
HIBBING        CLOUDY    53  51  93 VRB3      29.81S FOG
ALEXANDRIA     CLEAR     51  48  89 W6        29.84F
SAINT CLOUD    CLOUDY    58  55  90 W6        29.83S FOG
MINNEAPOLIS    CLOUDY    56  55  97 CALM      29.84R FOG
$$

  *****  WEATHER ACROSS SOUTH DAKOTA  *****

CITY           SKY/WX    TMP DP  RH WIND       PRES   REMARKS
SIOUX FALLS    PTCLDY    52  48  86 N7        29.85R
BROOKINGS      NOT AVBL
WATERTOWN      MOCLDY    50  47  89 NW7       29.86F
HURON          CLOUDY    49  47  93 NW6       29.90R
SISSETON         N/A     50  48  93 NW8       29.84S
ABERDEEN       CLOUDY    48  45  89 W3        29.88R
MITCHELL       CLOUDY    53  48  83 NW8       29.90R
PIERRE         CLOUDY    52  49  89 W5        29.91F
MOBRIDGE       CLOUDY    52  48  86 NW6       29.89R
RAPID CITY     CLEAR     40  36  86 CALM      29.99S
$$

  *****  SOME WEATHER IN NEARBY STATES *****

CITY           SKY/WX    TMP DP  RH WIND       PRES   REMARKS
GLASGOW MT     MOCLDY    48  38  68 W9        29.83S
GREAT FALLS MT PTCLDY    43  31  62 SW13      29.95S
CHEYENNE WY    MOCLDY    37  35  92 W5        30.09R
SCOTTSBLUFF NE MOCLDY    41  40  96 NW5       30.07R
OMAHA NE       FOG       64  63  96 CALM      29.76S VSB 1/4
DES MOINES IA  FOG       64  62  93 E6        29.78F VSB 1/4
DAVENPORT IA   NOT AVBL
CHICAGO IL     CLOUDY    63  56  78 SE7       29.87F
EAU CLAIRE WI  CLOUDY    55  54  96 CALM      29.83S
LA CROSSE WI   CLOUDY    60  57  89 S6        29.82F
$$

  *****  SOME NATIONAL WEATHER *****

CITY           SKY/WX    TMP DP  RH WIND       PRES   REMARKS
LA GUARDIA NY  CLOUDY    61  55  81 N8        30.08S
RALEIGH NC     PTCLDY    60  58  92 CALM      30.07S FOG
ATLANTA GA     CLEAR     67  62  84 CALM      30.05R
NEW ORLEANS LA PTCLDY    78  75  90 SE5       29.93S
OKLAHOMA CITY  CLOUDY    73  67  81 S13       29.72F
ALBUQUERQUE NM PTCLDY    60  36  40 N12       30.04R
SALT LAKE CITY CLEAR     44  37  76 SE9       30.21F
LOS ANGELES CA CLEAR     67  63  87 VRB3      29.88F
BOISE ID       CLEAR     48  36  63 SE9       30.16S
SEATTLE WA     MOCLDY    57  45  64 E6        30.22S
$$

*** WEATHER ACROSS MANITOBA...SASKATCHEWAN AND ONTARIO ***
                ***ONTARIO***

CITY           SKY/WX    TMP DP  RH WIND       PRES   REMARKS
GERALDTON      CLOUDY    52  50  93 S9        29.80S
THUNDER BAY    CLOUDY    50  50 100 CALM      29.81F FOG
SIOUX LOOKOUT  CLOUDY    54  52  94 SW7       29.69R
TORONTO        CLOUDY    59  57  94 E5        30.08F
BIG TROUT LK   CLOUDY    54  50  87 S13G18    29.45F
PICKLE LAKE    NOT AVBL
DRYDEN         CLOUDY    55  54  94 SW12      29.69R
KENORA         CLOUDY    54  50  87 W12G18    29.70R
$$
                *** MANITOBA***

CITY           SKY/WX    TMP DP  RH WIND       PRES   REMARKS
BRANDON        CLOUDY    45  43  93 W8        29.76R
DAUPHIN        CLEAR     46  41  81 W10       29.70R
ISLAND LAKE    LGT RAIN  52  50  93 W14G22    29.44R
PILOT MOUND      N/A     43  41  93 SW7         N/A
THE PAS        CLEAR     41  39  93 W13       29.62R
THOMPSON       CLOUDY    45  45 100 W14       29.43R
WINNIPEG       PTCLDY    50  45  81 SW7       29.73R
LYNN LAKE      LGT RAIN  41  41 100 NW10G21   29.50R FOG
CHURCHILL      FOG       41  41 100 NE3       29.24F VSB 1/2
GILLAM         LGT RAIN  46  46 100 W13G20    29.29R
$$
                ***SASKATCHEWAN***

CITY           SKY/WX    TMP DP  RH WIND       PRES   REMARKS
ESTEVAN        PTCLDY    39  37  93 SW7       29.80S
KINDERSLEY     MOCLDY    39  36  87 W13       29.85R
LLOYDMINSTER   CLOUDY    36  27  69 W17G31    29.81R
PRINCE ALBERT  PTCLDY    39  34  81 W8        29.69R
REGINA         MOCLDY    37  34  87 SW6       29.75S


USA.gov is the U.S. government's official web portal to all federal, state and local government web resources and services.